Flag for U.S.A. Weather past 2 weeks in Brownsville, Texas, U.S.A.

Now
88 °F

Broken clouds.


Feels Like: 100 °F
Forecast: 78 / 89 °F
Wind: 28 mph from Southeast

Location: Brownsville / South Padre Island International Airport

Current Time: May 25, 2015 at 1:33:56 PM

Latest Report: May 25, 2015 at 12:53 PM


Visibility: 10 mi

Pressure: 29.85 "Hg

Humidity: 70%

Dew point: 77 °F

Location of BrownsvilleLocation

Historic Weather in Brownsville — Graph

°F

Brownsville temperature yesterday

Maximum temperature yesterday: 87 °F (at 2:53 PM)
Minimum temperature yesterday: 69 °F (at 3:55 AM)
Average temperature yesterday: 78 °F

Past Weeks' High & Low Weather Summary

 TemperatureHumidityPressure
High90 °F (May 18, 1:53 PM)97% (May 22, 1:53 AM)30.07 "Hg (May 22, 1:53 AM)
Low69 °F (May 24, 3:55 AM)57% (May 14, 2:53 PM)29.76 "Hg (May 10, 4:53 PM)
Average81 °F81%29.93 "Hg
* Reported May 10 12:53 PM — May 25 12:02 PM, Brownsville, Weather by CustomWeather, © 2015

Note: Actual official high and low records may vary slightly from our data, if they occured in-between our weather recording intervals... More about our weather records

Advertising

Brownsville weather history for previous 24 hours

 ConditionsComfort  
Time TempWeatherWind HumidityBarometerVisibility
12:02 PM
Mon, May 25
89 °FScattered clouds.22 mph65%29.87 "Hg10 mi
11:53 AM88 °FPartly sunny.29 mph67%29.86 "Hg10 mi
10:53 AM85 °FCloudy.24 mph75%29.86 "Hg10 mi
9:53 AM83 °FMostly cloudy.15 mph79%29.87 "Hg9 mi
8:53 AM83 °FMostly cloudy.20 mph79%29.86 "Hg9 mi
7:53 AM80 °FOvercast.14 mph87%29.86 "Hg8 mi
6:53 AM79 °FPassing clouds.13 mph90%29.85 "Hg8 mi
5:53 AM78 °FPassing clouds.13 mph90%29.84 "Hg10 mi
4:53 AM77 °FClear.9 mph90%29.84 "Hg10 mi
3:53 AM77 °FClear.9 mph94%29.83 "Hg10 mi
2:53 AM77 °FClear.8 mph90%29.86 "Hg10 mi
1:53 AM77 °FClear.7 mph90%29.87 "Hg10 mi
12:53 AM77 °FClear.8 mph90%29.89 "Hg10 mi
11:53 PM
Sun, May 24
77 °FClear.10 mph88%29.90 "Hg10 mi
10:53 PM78 °FClear.12 mph84%29.89 "Hg10 mi
9:53 PM78 °FClear.13 mph84%29.87 "Hg10 mi
8:53 PM80 °FSunny.16 mph76%29.85 "Hg10 mi
7:53 PM81 °FSunny.16 mph69%29.85 "Hg10 mi
6:53 PM84 °FSunny.16 mph63%29.85 "Hg10 mi
5:53 PM86 °FSunny.22 mph59%29.84 "Hg10 mi
4:53 PM87 °FSunny.20 mph61%29.85 "Hg10 mi
3:53 PM87 °FSunny.17 mph61%29.86 "Hg10 mi
2:53 PM87 °FPassing clouds.17 mph61%29.89 "Hg10 mi
1:53 PM85 °FPassing clouds.21 mph65%29.91 "Hg10 mi
Weather by CustomWeather, © 2015

See weather overviewHow to use our weather pages